Theta_e
309 304 302 306 308 307 305 304 303 306 310 309 308 310 313 316 317 320 320 319 323 329 336 341 345 347 347 347 347 352 354 358 354 348 344 342 341 342 341 341 340 340 338 334
306 302 307 308 308 306 305 303 304 307 309 308 308 309 313 315 318 322 322 322 324 329 335 342 346 348 348 349 349 350 351 355 353 348 347 345 344 342 342 340 339 338 333 331
305 306 308 306 305 304 305 304 303 303 307 309 309 307 310 314 322 326 326 325 328 329 334 339 342 346 348 348 349 349 351 352 352 352 348 346 344 342 338 338 335 333 329 327
307 310 306 305 304 306 302 306 305 304 304 300 309 300 309 312 314 320 324 325 326 329 333 338 341 343 346 347 349 350 350 351 350 351 347 346 340 337 339 338 335 330 329 330
304 305 305 303 305 307 304 307 306 306 305 305 305 302 306 312 310 313 323 327 328 330 333 337 339 341 343 344 346 348 349 349 348 348 348 344 344 342 338 332 331 330 328 327
306 311 309 308 308 308 308 306 307 307 305 299 303 303 304 308 310 314 322 327 330 331 334 337 340 337 341 344 345 347 347 347 347 347 347 347 342 337 333 331 328 326 324 323
305 305 309 310 306 309 308 305 298 297 297 296 305 302 305 311 313 314 316 321 327 333 334 336 333 335 340 342 343 344 345 342 344 344 343 342 340 337 333 330 325 321 322 321
300 297 304 308 306 305 306 305 299 292 295 298 305 299 305 313 315 320 323 325 328 332 335 336 335 337 339 341 342 341 341 340 340 338 336 335 334 329 327 323 322 322 320 320
301 299 306 306 308 307 304 301 307 302 303 299 302 305 310 313 313 316 320 324 327 331 334 335 336 337 339 340 339 340 339 336 335 333 331 330 327 325 323 323 322 320 321 318
306 299 305 306 309 308 306 310 301 302 294 294 299 301 303 308 310 314 316 320 327 332 334 336 336 336 339 338 338 338 336 333 331 330 328 325 324 324 322 321 320 320 321 318
307 305 302 305 304 304 304 303 304 305 303 297 296 300 311 311 314 314 316 318 325 332 334 335 336 335 338 337 335 334 332 330 328 326 324 323 323 322 321 321 320 319 319 318
307 306 301 303 309 309 308 306 306 300 299 302 301 300 313 314 314 316 317 319 327 333 335 335 334 335 336 334 333 331 330 327 325 324 323 323 323 322 322 321 320 319 318 318
309 304 300 302 306 308 305 307 307 308 307 301 298 300 313 314 315 316 316 319 326 333 334 333 333 335 334 333 330 328 327 326 325 323 322 322 322 322 322 320 320 319 319 318
310 306 303 299 302 305 303 305 307 307 302 301 302 304 309 311 313 315 317 320 325 332 334 333 334 333 333 332 329 327 327 325 324 323 323 322 322 323 322 320 320 319 318 318
307 301 304 304 303 304 303 303 304 304 306 303 305 306 310 314 316 317 319 322 326 329 332 335 333 334 334 330 328 327 325 325 323 322 322 323 323 322 321 319 319 319 319 317
305 299 302 300 303 303 301 303 304 304 304 305 306 307 314 317 319 318 318 319 322 328 331 334 334 334 331 328 327 325 323 322 323 322 322 323 321 319 319 320 319 319 317 316
301 300 299 295 301 301 297 302 304 305 307 306 303 309 314 314 316 318 320 321 321 325 331 333 335 334 332 329 328 325 324 322 322 323 322 321 319 318 318 318 316 316 316 316
299 300 299 295 298 290 301 307 307 305 307 308 309 311 314 315 320 321 322 322 323 326 329 334 336 335 333 332 328 327 325 322 322 322 321 318 317 317 317 315 315 317 316 315
303 300 295 292 294 298 300 303 303 303 303 310 311 311 313 317 318 320 327 329 327 329 332 336 337 337 334 331 328 326 324 323 322 321 319 317 317 316 315 313 315 316 316 314
301 301 296 294 290 289 301 306 309 308 298 313 313 313 314 316 311 315 326 328 330 332 334 335 337 336 333 329 329 325 323 323 322 321 318 317 317 315 313 315 316 316 315 313
297 297 292 291 291 296 304 307 311 298 303 313 313 314 315 314 317 321 324 328 331 332 332 334 336 333 330 330 328 324 324 323 322 319 317 316 316 316 316 315 315 314 313 312
296 294 294 294 291 289 305 307 303 310 312 312 315 316 316 318 320 322 324 326 329 329 330 332 332 329 329 329 327 324 324 322 320 317 315 314 317 315 313 314 313 313 313 312
294 299 298 299 299 310 313 311 312 312 309 311 312 313 313 315 318 320 323 326 327 327 327 329 328 327 327 327 327 324 321 319 317 315 314 315 315 315 313 312 311 310 312 309
300 304 301 301 304 305 306 309 310 309 311 312 312 311 313 312 318 320 323 325 326 327 327 328 325 324 322 324 324 321 318 317 315 315 314 316 314 313 313 312 311 309 309 308
298 300 298 299 302 303 304 305 306 308 311 310 310 310 311 312 315 321 323 325 326 327 325 324 324 321 318 321 319 317 316 316 315 314 314 315 314 314 311 312 310 309 311 305
297 295 293 293 300 301 302 304 306 306 307 309 310 311 313 314 315 322 323 325 325 323 323 322 322 317 315 315 314 314 316 315 314 313 311 311 311 310 310 309 309 299 297 296
Wind_Speed
10 10 13 13 11 8 5 6 9 7 4 10 14 16 15 17 9 15 14 15 15 13 11 13 11 11 11 10 10 11 11 11 10 9 9 8 8 6 5 5 6 7 5 5
8 13 10 4 6 8 8 9 11 9 7 6 14 14 16 13 11 10 11 11 13 12 10 9 10 10 10 10 10 10 11 11 10 8 7 5 5 6 6 6 6 5 5 4
13 6 4 10 10 11 12 11 9 11 9 14 14 17 17 9 8 8 9 9 8 10 13 12 12 11 9 9 9 9 10 11 11 9 7 6 7 7 6 7 6 5 4 5
11 10 8 9 14 12 13 5 9 8 8 10 6 12 9 9 9 6 4 8 9 9 10 11 11 10 9 8 7 9 10 11 10 12 10 11 8 8 6 6 4 4 5 3
7 9 13 15 12 10 10 3 8 8 10 10 14 10 14 6 11 6 2 3 4 5 7 8 10 8 7 8 9 9 11 11 12 10 9 9 7 6 6 5 7 5 4 2
15 4 6 7 4 11 2 8 11 10 12 12 15 11 12 10 5 7 4 0 1 4 6 8 7 8 10 11 11 11 11 10 10 9 9 6 8 8 7 6 6 4 3 2
14 14 13 9 10 10 9 8 8 10 11 12 5 7 14 10 6 6 9 5 3 5 8 11 11 11 11 13 12 11 11 10 9 9 8 8 9 8 8 7 3 2 2 2
8 9 16 12 19 13 13 13 10 7 10 9 9 7 6 5 5 7 8 8 8 7 10 11 13 13 14 13 12 11 11 11 10 10 10 9 10 6 6 4 4 2 1 2
5 5 2 4 9 15 17 11 13 15 13 10 12 8 7 16 11 10 8 6 7 7 10 12 13 13 13 12 11 11 12 12 11 11 10 9 7 6 6 6 4 3 1 2
4 8 8 2 5 6 13 0 8 10 13 16 10 10 8 5 8 7 7 6 7 7 10 12 13 13 12 12 11 11 11 12 12 11 10 9 8 8 7 5 4 3 2 4
8 8 4 6 11 10 9 12 9 8 8 10 12 8 1 7 8 10 13 9 6 9 11 13 14 14 13 12 12 11 12 13 12 10 10 9 8 7 6 5 5 5 4 4
3 6 10 17 10 5 12 16 12 11 12 10 11 13 11 9 14 12 14 12 6 6 10 13 14 16 14 13 12 12 11 12 11 10 10 8 7 7 6 5 5 4 4 4
7 6 9 11 10 10 11 12 14 10 10 15 15 11 3 6 13 15 16 11 5 7 12 12 15 16 14 13 12 13 12 11 11 10 9 7 6 6 6 5 4 4 3 6
4 7 10 12 11 9 4 8 9 10 11 13 15 17 15 15 16 18 17 12 7 10 14 15 14 14 15 15 14 14 13 13 11 10 9 8 7 6 5 4 3 3 5 7
5 8 12 12 14 15 14 14 15 16 15 17 15 16 15 15 17 18 16 11 8 12 15 15 15 15 16 16 15 14 13 13 13 11 9 8 7 5 5 4 3 4 6 7
1 8 9 16 16 17 21 20 19 20 21 22 21 21 17 19 18 16 18 16 11 13 14 17 17 17 18 18 17 17 16 13 12 11 9 7 6 5 4 3 5 5 6 7
7 7 9 18 17 18 22 20 24 25 24 20 22 19 17 13 17 15 15 15 16 11 15 18 21 21 19 19 18 17 14 13 11 9 7 6 5 4 3 4 5 6 6 7
9 9 10 11 10 20 12 16 12 13 14 15 16 13 13 14 15 15 16 16 15 8 10 16 16 18 18 16 15 14 12 11 10 9 7 6 4 3 3 4 5 6 6 8
16 12 9 11 14 19 25 18 16 15 16 9 16 15 17 15 17 12 23 21 12 9 8 13 16 17 16 16 16 14 14 12 10 8 6 5 3 3 4 5 5 6 7 8
13 14 12 9 14 12 4 9 5 10 15 12 12 12 15 16 11 5 23 18 17 7 3 11 15 16 17 18 17 15 14 12 9 7 6 4 3 3 5 5 6 6 7 9
8 9 17 14 13 9 8 12 10 9 7 11 12 12 14 12 12 19 19 16 13 6 4 9 14 16 18 19 18 16 13 11 9 7 6 4 2 3 4 5 6 7 7 8
11 8 8 12 16 19 5 6 10 11 12 15 14 15 16 16 18 19 18 13 10 3 6 11 12 14 15 16 16 15 12 11 9 7 6 4 2 3 3 5 6 7 7 8
11 14 7 11 5 4 3 3 6 11 16 16 19 19 19 20 19 21 19 13 7 3 6 10 13 14 13 15 14 15 13 11 9 7 5 3 2 3 3 5 6 7 6 7
12 13 10 15 13 16 16 13 16 17 11 16 17 20 20 21 20 21 18 10 6 6 9 11 15 13 14 13 12 14 13 11 9 7 4 3 3 3 4 6 5 5 7 8
11 10 11 20 21 22 21 18 15 18 16 19 22 23 23 21 22 19 15 8 7 8 10 12 14 14 12 13 12 13 11 9 8 7 4 2 1 2 4 5 5 7 6 5
15 20 16 17 16 17 15 15 19 19 20 21 21 22 24 23 22 19 11 6 7 11 13 14 15 14 14 15 12 11 11 8 7 6 5 2 3 4 5 5 7 7 5 6
Wind_Direction
201 221 217 218 227 315 289 274 271 278 266 270 261 265 272 268 259 260 266 246 238 213 204 196 186 200 198 206 202 206 204 197 193 190 190 186 185 172 162 146 150 157 158 135
191 229 241 274 225 236 244 260 260 277 291 251 266 272 269 255 270 284 283 238 221 208 183 174 196 200 201 196 200 198 203 190 196 192 200 196 168 168 152 147 153 140 145 154
248 73 240 212 204 231 238 262 280 287 298 269 264 260 248 218 254 256 253 249 224 218 188 193 200 200 192 192 192 190 188 178 188 179 159 158 138 141 160 161 167 137 144 167
245 224 205 221 241 236 263 260 261 271 262 259 207 274 182 210 253 204 223 210 217 214 219 190 203 198 199 181 169 166 164 167 168 173 175 174 173 176 169 161 139 148 165 151
214 211 219 232 234 222 264 296 257 276 262 276 247 246 273 199 257 265 158 176 186 205 208 189 198 182 179 174 158 150 153 159 155 167 169 173 177 124 151 150 155 111 125 118
273 169 238 241 241 236 255 216 235 251 251 238 242 246 253 246 3 322 149 83 189 210 192 183 162 147 178 166 156 152 152 146 149 152 152 171 139 152 152 152 160 158 158 168
222 237 222 239 226 186 222 230 243 216 216 245 186 232 251 309 282 287 297 268 240 213 199 184 158 189 177 164 158 151 147 145 144 140 135 137 137 138 136 164 154 162 178 214
231 219 218 219 232 239 207 239 264 271 258 251 147 238 221 239 286 286 285 278 281 208 204 195 181 186 182 165 158 152 151 144 141 131 128 131 139 137 131 130 119 157 236 203
211 233 141 253 240 233 230 237 258 273 265 276 279 247 214 245 258 259 253 271 260 221 206 190 183 186 180 165 156 164 153 142 139 134 137 134 131 141 114 124 154 166 219 165
252 261 224 181 202 212 256 117 210 219 263 254 251 245 269 251 285 330 302 274 250 222 203 185 173 192 175 163 163 159 153 148 143 144 145 148 144 139 136 145 186 200 174 229
255 244 185 187 210 243 180 226 232 298 297 280 270 265 109 280 310 309 312 331 304 195 202 185 170 195 174 167 165 158 155 151 148 153 149 149 143 142 152 176 190 200 206 227
58 262 249 248 267 257 272 281 236 240 234 237 277 277 304 281 292 313 305 320 322 188 198 184 172 188 176 175 165 164 158 156 156 155 155 148 147 157 178 197 196 205 236 266
359 222 247 216 217 212 235 221 236 250 282 264 274 267 196 251 272 291 295 306 284 208 189 179 191 180 176 177 166 165 164 161 159 160 155 150 163 182 187 191 203 230 278 294
280 269 268 287 351 352 229 220 223 225 250 261 254 269 269 288 273 278 282 305 256 201 188 191 186 177 179 172 172 167 171 161 163 160 160 169 180 188 183 197 221 276 302 302
307 259 265 274 283 287 272 271 268 253 254 265 281 285 294 296 286 284 290 293 256 213 203 194 187 184 177 172 172 172 165 168 164 165 172 174 176 187 197 210 268 290 296 297
243 265 266 266 264 267 269 260 254 256 257 260 264 267 277 279 281 282 271 269 253 233 213 196 189 186 181 178 177 170 172 170 167 166 172 172 178 194 212 248 275 282 288 301
279 278 249 263 266 269 265 250 249 254 253 256 260 268 279 295 304 294 282 271 278 244 212 201 191 187 188 183 178 171 162 157 170 164 161 168 175 206 245 273 282 287 305 308
250 246 259 265 281 251 268 265 267 281 278 269 266 276 275 288 313 309 282 278 282 276 219 201 194 191 187 174 163 154 163 161 157 169 160 159 171 226 244 277 281 295 303 301
220 242 258 243 232 261 282 275 260 254 262 359 343 304 282 301 303 318 18 349 301 292 213 191 190 185 174 162 158 158 159 161 164 155 150 162 196 226 270 280 302 304 301 298
207 221 243 246 240 253 42 17 283 232 249 38 2 2 353 333 281 288 355 348 339 335 212 176 179 169 161 162 157 158 160 162 156 145 151 169 160 271 285 304 305 306 294 287
167 207 223 231 250 266 282 295 315 242 57 345 334 343 349 338 329 314 325 339 331 322 161 181 169 162 164 156 155 154 157 152 128 134 147 152 175 249 294 296 298 295 288 306
214 215 200 233 241 248 232 263 289 13 329 332 341 335 335 327 324 321 328 334 323 286 171 168 161 165 151 154 155 151 140 122 134 148 147 162 193 281 307 295 291 287 292 292
248 239 281 223 214 85 305 310 340 326 315 325 332 328 328 324 320 322 320 325 313 252 169 170 160 147 154 157 147 135 127 134 143 150 148 169 211 281 295 290 293 281 279 293
249 259 258 270 248 269 283 313 309 307 331 317 313 312 315 314 313 313 310 318 276 197 177 157 140 151 142 137 132 123 132 139 147 140 147 190 245 334 287 292 287 298 305 324
273 307 272 268 266 274 275 279 318 314 311 305 307 309 305 305 304 305 304 290 241 168 149 146 147 143 135 124 125 123 136 147 138 127 160 223 224 246 291 276 317 307 325 338
252 251 247 259 279 281 282 298 303 298 290 295 297 299 297 297 293 299 293 259 192 163 155 153 146 131 139 131 127 133 141 136 134 147 174 72 317 308 312 313 314 216 254 191